sat.trackr.live / text

‹ back to catalog

STARLINK-37009

NORAD 68208 · 2026-053B

PAYLOAD ACTIVE UNKNOWN

§ Identity

Operator
Country
US
Launch date
2026-03-17
Launch site
AFWTR
Launch vehicle
Mass (kg)
RCS (m²)

Purposes: comms

External: N2YO · Heavens-Above · Gunter

§ Orbital elements

Epoch: 2026-09-18T21:38:20.450112Z

Period
93.91 min
Inclination
97.2842°
Eccentricity
0.0001670
Mean motion
15.33446417 rev/d
Perigee alt
464.4 km
Apogee alt
466.7 km
Semi-major
6,843.7 km
B*
6.3908e-4
RAAN
135.6290°
Arg perigee
98.3355°
Mean anomaly
261.8077°
Rev number
2,982

§ Raw data

STARLINK-370091 68208U 26053B   26261.90162558  .00020614  00000+0  63908-3 0  99942 68208  97.2842 135.6290 0001670  98.3355 261.8077 15.33446417 29821

JSON: /api/v1/satellites/68208 · /tle

For live sub-satellite position, see the globe view (requires WebGL).

§ Visibility from observer

Set your observer location to see the next 7 days of passes ≥ 10°. The values pass through the URL so the page stays shareable.

No JS? Fill the form by hand. The geolocation button needs JavaScript.